Total_Precipitation_Accumulation
0.15 0.12 0.14 0.13 0.09 0.06 0.05 0.06 0.05 0.03 0.03 0.06 0.11 0.10 0.08 0.08 0.06 0.06 0.01 0.01 0.03 0.05 0.04 0.10 0.19 0.19 0.24 0.39 0.41 0.42 0.40 0.31 0.22 0.24 0.25 0.21 0.22 0.18 0.22 0.26 0.31 0.32 0.31
0.35 0.18 0.16 0.11 0.07 0.09 0.06 0.06 0.07 0.08 0.04 0.04 0.03 0.05 0.09 0.10 0.11 0.08 0.08 0.08 0.08 0.06 0.04 0.06 0.10 0.17 0.29 0.35 0.40 0.54 0.57 0.40 0.29 0.31 0.31 0.30 0.31 0.29 0.29 0.31 0.33 0.36 0.42
0.20 0.24 0.20 0.19 0.22 0.34 0.41 0.32 0.22 0.21 0.13 0.10 0.08 0.03 0.03 0.07 0.10 0.10 0.11 0.13 0.17 0.15 0.12 0.08 0.10 0.16 0.29 0.23 0.34 0.51 0.69 0.61 0.51 0.51 0.47 0.44 0.45 0.44 0.44 0.45 0.43 0.42 0.41
0.23 0.19 0.13 0.09 0.25 0.51 0.66 0.52 0.37 0.32 0.22 0.20 0.21 0.19 0.20 0.17 0.12 0.14 0.16 0.17 0.18 0.17 0.14 0.11 0.11 0.14 0.16 0.19 0.26 0.41 0.69 0.84 0.86 0.94 0.98 0.92 0.92 0.91 0.87 0.87 0.88 0.90 0.93
0.48 0.37 0.25 0.17 0.29 0.47 0.48 0.47 0.46 0.44 0.35 0.30 0.30 0.34 0.32 0.26 0.23 0.21 0.17 0.21 0.27 0.33 0.32 0.24 0.22 0.15 0.15 0.19 0.21 0.27 0.54 0.87 0.84 0.91 0.99 1.15 1.03 0.91 0.87 0.97 1.18 1.35 1.49
0.69 0.77 0.58 0.43 0.49 0.56 0.70 0.74 0.40 0.46 0.45 0.57 0.61 0.42 0.37 0.32 0.27 0.26 0.25 0.26 0.31 0.38 0.42 0.46 0.46 0.50 0.60 0.64 0.65 0.57 0.55 0.76 1.00 1.12 1.18 1.26 1.24 1.28 1.24 1.28 1.38 1.36 1.21
0.75 0.78 0.76 0.83 0.80 0.70 0.63 0.74 0.81 0.66 0.44 0.55 0.65 0.40 0.35 0.29 0.22 0.23 0.31 0.36 0.34 0.44 0.62 0.82 0.88 0.81 0.72 0.79 0.83 0.82 0.88 1.00 1.31 1.52 1.70 1.82 1.89 1.84 1.76 1.70 1.61 1.38 1.20
0.95 0.91 0.65 0.57 0.66 0.73 0.68 0.59 0.65 0.72 0.58 0.68 0.67 0.50 0.27 0.15 0.09 0.06 0.13 0.19 0.25 0.36 0.39 0.44 0.49 0.63 0.72 0.65 0.68 0.70 0.70 0.69 0.79 1.02 1.35 1.61 1.50 1.37 1.33 1.33 1.28 1.41 1.60
1.23 1.27 1.19 1.17 1.07 0.93 0.82 0.73 0.74 0.85 0.86 0.81 0.73 0.84 0.42 0.15 0.13 0.14 0.15 0.18 0.21 0.26 0.31 0.49 0.59 0.59 0.48 0.32 0.28 0.27 0.35 0.45 0.57 0.90 1.16 1.43 1.59 1.39 1.29 1.29 1.51 1.93 2.36
1.26 1.43 1.59 1.51 1.57 1.57 1.30 1.23 1.14 1.14 1.09 0.79 0.74 0.62 0.67 0.46 0.35 0.18 0.14 0.24 0.27 0.42 0.57 0.64 0.66 0.51 0.37 0.31 0.31 0.29 0.32 0.29 0.27 0.55 0.90 1.34 1.79 2.01 2.30 2.58 2.75 3.11 3.25
1.92 1.98 2.01 2.07 1.87 1.87 2.05 1.84 1.68 1.56 1.48 1.30 1.08 0.96 0.78 0.70 0.65 0.64 0.39 0.40 0.55 0.65 0.80 0.79 0.60 0.42 0.61 0.85 1.11 1.05 0.78 0.71 0.73 0.96 1.23 1.51 2.08 2.65 3.02 3.30 4.13 3.89 3.93
1.68 1.98 2.11 2.01 1.95 1.61 1.48 1.59 1.58 1.45 1.37 1.21 1.00 0.94 0.87 0.86 0.77 0.86 0.76 0.53 0.57 0.60 0.65 0.86 1.28 1.25 1.22 1.32 1.56 1.69 2.22 1.91 2.34 2.38 2.16 2.67 2.71 3.20 3.13 3.03 2.94 2.20 2.33
1.08 1.10 1.41 1.48 1.29 1.25 1.18 1.20 1.04 1.00 1.10 1.07 0.99 0.86 0.99 1.03 1.21 1.20 1.21 0.88 0.73 0.64 0.68 0.56 0.61 0.64 0.57 0.66 1.21 1.29 1.93 2.28 2.44 2.84 2.71 2.51 2.54 2.18 1.96 1.87 1.97 2.25 2.04
1.41 1.22 1.05 1.32 1.41 1.13 0.87 0.86 0.75 0.58 0.65 0.66 0.70 0.77 0.77 0.87 1.23 1.41 1.47 1.61 1.48 1.08 0.91 0.69 0.75 0.92 0.94 1.11 1.22 1.50 1.32 1.31 1.15 1.25 1.59 1.63 1.54 1.26 0.99 0.85 1.06 1.40 1.51
0.95 0.95 0.84 0.81 0.81 0.74 0.81 0.85 0.83 0.73 0.63 0.62 0.69 0.78 0.83 0.73 0.79 0.97 1.29 1.66 2.14 1.96 1.23 0.86 0.82 0.77 0.73 0.78 1.00 0.94 0.80 1.09 1.07 1.03 1.04 1.14 1.25 1.28 1.03 1.04 1.01 1.10 1.28
0.83 0.88 0.75 0.65 0.50 0.42 0.46 0.51 0.56 0.63 0.73 0.67 0.63 0.71 0.74 0.76 0.88 0.96 1.00 1.18 1.57 2.00 1.94 1.11 0.97 0.91 0.90 0.98 1.13 1.00 0.96 1.14 1.04 1.02 0.94 0.87 0.84 0.71 0.53 0.52 0.59 0.53 0.45
0.65 0.54 0.67 0.82 0.68 0.53 0.52 0.53 0.53 0.58 0.70 0.69 0.67 0.71 0.72 0.72 0.83 0.84 0.90 1.02 1.20 1.41 1.68 1.41 1.27 1.20 1.19 1.17 1.12 0.93 0.78 0.58 0.55 0.63 0.51 0.41 0.32 0.28 0.25 0.24 0.25 0.28 0.31
0.62 0.51 0.40 0.45 0.62 0.68 0.69 0.69 0.85 0.80 0.69 0.74 0.80 0.87 0.82 0.78 0.78 0.80 0.89 0.99 1.20 1.45 1.73 1.74 1.61 1.49 1.28 0.98 0.71 0.50 0.35 0.24 0.17 0.25 0.20 0.16 0.17 0.16 0.14 0.15 0.19 0.21 0.23
0.33 0.35 0.36 0.35 0.34 0.40 0.51 0.68 0.72 0.72 0.76 0.77 0.69 0.68 0.73 0.86 1.05 1.19 1.28 1.30 1.27 1.16 1.08 0.97 0.76 0.63 0.53 0.42 0.33 0.26 0.19 0.15 0.11 0.18 0.18 0.16 0.17 0.14 0.12 0.13 0.16 0.18 0.22
0.27 0.28 0.31 0.35 0.35 0.23 0.27 0.29 0.28 0.36 0.41 0.47 0.49 0.47 0.50 0.57 0.64 0.68 0.71 0.67 0.59 0.52 0.46 0.44 0.47 0.43 0.38 0.30 0.31 0.30 0.28 0.25 0.22 0.19 0.20 0.18 0.20 0.19 0.17 0.15 0.12 0.09 0.08
0.25 0.18 0.17 0.16 0.23 0.24 0.34 0.28 0.21 0.26 0.37 0.48 0.56 0.54 0.51 0.51 0.47 0.40 0.37 0.35 0.39 0.44 0.57 0.70 0.62 0.53 0.38 0.28 0.26 0.25 0.26 0.22 0.23 0.19 0.17 0.17 0.19 0.18 0.16 0.18 0.15 0.14 0.14
0.18 0.21 0.22 0.16 0.16 0.27 0.53 0.39 0.35 0.37 0.37 0.37 0.36 0.32 0.31 0.35 0.27 0.24 0.21 0.20 0.23 0.41 0.55 0.65 0.59 0.39 0.23 0.24 0.27 0.30 0.40 0.39 0.35 0.16 0.20 0.17 0.14 0.14 0.10 0.10 0.15 0.17 0.19
0.38 0.53 0.56 0.60 0.70 0.82 0.91 0.75 0.61 0.46 0.43 0.37 0.33 0.29 0.22 0.14 0.10 0.07 0.06 0.11 0.23 0.32 0.32 0.23 0.14 0.13 0.16 0.21 0.46 0.47 0.36 0.38 0.28 0.13 0.20 0.22 0.15 0.18 0.17 0.19 0.30 0.30 0.31
0.88 0.78 0.69 0.82 0.89 0.82 0.70 0.53 0.49 0.36 0.31 0.29 0.24 0.12 0.05 0.02 0.01 0.03 0.08 0.22 0.16 0.11 0.05 0.06 0.07 0.11 0.20 0.24 0.31 0.47 0.47 0.39 0.30 0.20 0.18 0.33 0.12 0.12 0.15 0.14 0.26 0.33 0.36
0.81 0.71 0.57 0.48 0.45 0.43 0.29 0.18 0.12 0.10 0.08 0.05 0.03 0.01 0.02 0.03 0.02 0.11 0.17 0.23 0.08 0.01 0.02 0.06 0.14 0.14 0.19 0.27 0.32 0.49 0.57 0.54 0.47 0.24 0.19 0.33 0.23 0.19 0.16 0.16 0.25 0.47 0.47
0.60 0.49 0.38 0.33 0.24 0.14 0.08 0.05 0.05 0.03 0.02 0.01 0.00 0.00 0.02 0.03 0.07 0.23 0.17 0.05 0.03 0.03 0.12 0.16 0.15 0.15 0.16 0.17 0.24 0.22 0.40 0.91 0.71 0.62 0.31 0.76 0.57 0.48 0.75 0.28 0.19 0.21 0.31